Flag for U.S.A. Weather past 2 weeks in Charlotte, North Carolina, U.S.A.

Now
92 °F

Passing clouds.


Feels Like: 89 °F
Forecast: 67 / 92 °F
Wind: 7 mph from Northeast

Location: Charlotte / Douglas International Airport

Current Time: Aug 1, 2015 at 3:18:22 PM

Latest Report: Aug 1, 2015 at 2:52 PM


Visibility: 10 mi

Pressure: 29.92 "Hg

Humidity: 26%

Dew point: 52 °F

Location of CharlotteLocation

Historic Weather in Charlotte — Graph

°F

Charlotte temperature yesterday

Maximum temperature yesterday: 92 °F (at 4:52 PM)
Minimum temperature yesterday: 72 °F (at 11:52 PM)
Average temperature yesterday: 82 °F

Past Weeks' High & Low Weather Summary

 TemperatureHumidityPressure
High98 °F (Jul 20, 3:52 PM)94% (Jul 20, 5:52 AM)30.04 "Hg (Jul 20, 5:52 AM)
Low68 °F (Jul 25, 6:52 AM)25% (Aug 1, 12:52 PM)29.71 "Hg (Jul 21, 3:52 PM)
Average82 °F63%29.93 "Hg
* Reported Jul 17 1:52 PM — Aug 1 1:52 PM, Charlotte, Weather by CustomWeather, © 2015

Note: Actual official high and low records may vary slightly from our data, if they occured in-between our weather recording intervals... More about our weather records

Advertising

Charlotte weather history for previous 24 hours

 ConditionsComfort  
Time TempWeatherWind HumidityBarometerVisibility
1:52 PM
Sat, Aug 1
90 °FPassing clouds.6 mph26%29.94 "Hg10 mi
12:52 PM90 °FScattered clouds.5 mph25%29.96 "Hg10 mi
11:52 AM89 °FScattered clouds.8 mph29%29.97 "Hg10 mi
10:52 AM87 °FScattered clouds.5 mph36%29.97 "Hg10 mi
9:52 AM83 °FScattered clouds.7 mph44%29.97 "Hg10 mi
8:52 AM79 °FPassing clouds.5 mph52%29.96 "Hg10 mi
7:52 AM73 °FPassing clouds.3 mph64%29.96 "Hg10 mi
6:52 AM69 °FPassing clouds.3 mph73%29.95 "Hg10 mi
5:52 AM70 °FPassing clouds.3 mph68%29.93 "Hg10 mi
4:52 AM69 °FPassing clouds.8 mph73%29.93 "Hg10 mi
3:52 AM72 °FPassing clouds.No wind64%29.94 "Hg10 mi
2:52 AM70 °FClear.7 mph73%29.94 "Hg10 mi
1:52 AM72 °FClear.6 mph66%29.95 "Hg10 mi
12:52 AM74 °FClear.7 mph60%29.96 "Hg10 mi
11:52 PM
Fri, Jul 31
72 °FPassing clouds.7 mph61%29.96 "Hg10 mi
10:52 PM84 °FPassing clouds.5 mph35%29.95 "Hg10 mi
9:52 PM79 °FPassing clouds.5 mph44%29.94 "Hg10 mi
8:52 PM86 °FScattered clouds.6 mph31%29.92 "Hg10 mi
7:52 PM86 °FPassing clouds.5 mph35%29.90 "Hg10 mi
6:52 PM90 °FPassing clouds.7 mph28%29.90 "Hg10 mi
5:52 PM91 °FPassing clouds.6 mph26%29.89 "Hg10 mi
4:52 PM92 °FPassing clouds.7 mph29%29.90 "Hg10 mi
3:52 PM91 °FPassing clouds.6 mph33%29.91 "Hg10 mi
Weather by CustomWeather, © 2015

See weather overviewHow to use our weather pages